Flag for Taiwan Weather past 2 weeks in Kaohsiung, Taiwan

Now
73 °F

Partly sunny.


Feels Like: 75 °F
Forecast: 64 / 68 °F
Wind: 9 mph from Northwest

Location: Kaohsiung International Airport

Current Time: Jan 26, 2015 at 5:35:55 PM

Latest Report: Jan 26, 2015 at 5:00 PM


Visibility: N/A

Pressure: 30.01 "Hg

Humidity: 74%

Dew point: 64 °F

Location of KaohsiungLocation

Historic Weather in Kaohsiung — Graph

°F

Kaohsiung temperature yesterday

Maximum temperature yesterday: 81 °F (at 12:30 PM)
Minimum temperature yesterday: 63 °F (at 3:00 AM)
Average temperature yesterday: 72 °F

Past Weeks' High & Low Weather Summary

 TemperatureHumidityPressure
High82 °F (Jan 26, 2:30 PM)94% (Jan 17, 3:51 AM)30.24 "Hg (Jan 17, 3:51 AM)
Low52 °F (Jan 24, 6:30 AM)19% (Jan 22, 4:00 PM)29.95 "Hg (Jan 13, 2:00 PM)
Average68 °F65%30.10 "Hg
* Reported Jan 11 4:00 PM — Jan 26 4:30 PM, Kaohsiung, Weather by CustomWeather, © 2014

Note: Actual official high and low records may vary slightly from our data, if they occured in-between our weather recording intervals... More about our weather records

Advertising

Kaohsiung weather history for previous 24 hours

 ConditionsComfort  
Time TempWeatherWind HumidityBarometerVisibility
4:30 PM
Jan 26
75 °FBroken clouds.10 mph65%29.98 "HgN/A
4:00 PM77 °FPartly sunny.12 mph61%29.98 "HgN/A
3:30 PM79 °FScattered clouds.12 mph54%29.98 "HgN/A
3:00 PM81 °FScattered clouds.10 mph48%29.98 "HgN/A
2:30 PM82 °FPartly sunny.8 mph45%29.98 "HgN/A
2:00 PM81 °FBroken clouds.9 mph45%30.01 "Hg5 mi
1:30 PM81 °FPartly sunny.10 mph45%30.01 "Hg4 mi
1:00 PM81 °FScattered clouds.7 mph48%30.01 "Hg3 mi
12:30 PM81 °FScattered clouds.6 mph45%30.04 "Hg3 mi
12:00 PM77 °FScattered clouds.6 mph51%30.07 "Hg3 mi
11:30 AM77 °FBroken clouds.6 mph51%30.09 "Hg2 mi
11:00 AM75 °FBroken clouds.6 mph54%30.09 "Hg2 mi
10:30 AM73 °FBroken clouds.5 mph57%30.09 "Hg2 mi
10:00 AM72 °FBroken clouds.5 mph65%30.09 "Hg2 mi
9:30 AM72 °FBroken clouds.6 mph65%30.09 "Hg2 mi
9:00 AM70 °FBroken clouds.6 mph69%30.09 "Hg2 mi
8:30 AM70 °FBroken clouds.6 mph69%30.09 "Hg2 mi
8:00 AM66 °FBroken clouds.6 mph78%30.09 "Hg2 mi
7:30 AM66 °FBroken clouds.3 mph78%30.09 "Hg2 mi
7:00 AM66 °FBroken clouds.6 mph78%30.09 "Hg2 mi
6:45 AM66 °FFog.3 mph78%30.09 "Hg1 mi
6:30 AM66 °FFog.3 mph78%30.09 "Hg2 mi
6:00 AM66 °FPartly cloudy.3 mph78%30.09 "Hg2 mi
5:00 AM66 °FPartly cloudy.7 mph78%30.07 "Hg2 mi
4:00 AM66 °FPartly cloudy.3 mph78%30.07 "Hg2 mi
3:00 AM68 °FPartly cloudy.5 mph69%30.07 "Hg2 mi
2:00 AM68 °FPartly cloudy.3 mph64%30.09 "Hg2 mi
1:00 AM68 °FPartly cloudy.3 mph69%30.09 "Hg2 mi
12:00 AM70 °FPartly cloudy.1 mph60%30.09 "Hg2 mi
11:30 PM
Jan 25
70 °FPartly cloudy.2 mph60%30.09 "Hg2 mi
11:00 PM68 °FPassing clouds.5 mph64%30.09 "Hg2 mi
10:45 PM68 °FPassing clouds.5 mph64%30.09 "Hg3 mi
10:30 PM68 °FPassing clouds.5 mph64%30.09 "Hg3 mi
10:00 PM70 °FPassing clouds.5 mph57%30.09 "Hg4 mi
9:30 PM70 °FPassing clouds.5 mph53%30.09 "Hg4 mi
9:00 PM72 °FPassing clouds.6 mph50%30.09 "Hg5 mi
8:30 PM72 °FPassing clouds.3 mph50%30.09 "Hg5 mi
8:00 PM72 °FPassing clouds.6 mph53%30.09 "Hg5 mi
7:30 PM72 °FPassing clouds.6 mph57%30.07 "Hg5 mi
7:00 PM73 °FPassing clouds.8 mph61%30.07 "Hg6 mi
6:30 PM73 °FPassing clouds.5 mph57%30.07 "Hg6 mi
6:00 PM75 °FPassing clouds.5 mph54%30.07 "HgN/A
5:30 PM75 °FPassing clouds.5 mph54%30.07 "HgN/A
5:00 PM77 °FPassing clouds.5 mph54%30.04 "HgN/A
Weather by CustomWeather, © 2014

See weather overviewHow to use our weather pages